"Pseudo-MPEC" for Sar2660

Created 2023 Jan 26 6:22:23 UT using Find_Orb

Click here for an explanation of pseudo-MPECs

 
 Astrometry: 
     Sar2660* C2023 01 24\*[Opp[:HdXN+!Quh7]B60Xu(VL$Vla`'6WxKKg5X@4Gp^SyO=1JK88
     Sar2660  C2023 01 24EhPJDBe*$U;VfVnidv#1l%IEXxbj#bXS2PQ`T,02h@Zj/xA2/3l3K88
     Sar2660 KC2023 01 243J1un47LBI(rTi`kjMY0-$@,E,o2x(E#nAq\2D$6Pjo0Q`$teeR+K88
     Sar2660 KC2023 01 24KQkucj#/GK*.fRCqCAstrometry8[tS\R'!qY`C0Qsuu(B!2;c)WK88
     Sar2660 KC2023 01 24O[T$G\RTr^[MV:3S$dKw`FZ\!FwdO/n1cni0*vdV4y)j9w=[HoAIK88
     Sar2660 KC2023 01 24.85250007 07 04.34 +48 18 03.0    ~1OL7 19.8 GXNEOCPI93
     Sar2660 KC2023 01 24.85339207 07 04.536+48 17 50.10   ~1OKq 19.7 GVNEOCPJ95
     Sar2660 KC2023 01 24.85769107 07 07.35 +48 17 41.2    ~1OL7 19.4 GXNEOCPI93
     Sar2660 KC2023 01 24.85780007 07 07.123+48 17 31.20   ~1OKq 19.5 GVNEOCPJ95
     Sar2660 KC2023 01 24.86134907 07 09.247+48 17 15.79   ~1OKq 19.3 GVNEOCPJ95
     Sar2660 KC2023 01 24.86204507 07 10.00 +48 17 22.4    ~1OL7       XNEOCPI93
     Sar2660 KC2023 01 24.86474707 07 11.251+48 17 01.61   ~1OL7 19.5 GVNEOCPJ95
     Sar2660 KC2023 01 24OWJOU5%d)j'Q38\cVlxVvhIl@AMh6H7?bn[QMyZ=1+rGn):l965bK88
     Sar2660 KC2023 01 24(U]0wsX5l^Qas\hr`S'kK)_.C,G3AdoPG%Mu^gvm(pOKBE1u'!0;K88
     Sar2660 KC2023 01 24cS!1@vO5Lv;TKSpmOOyGvG1KNgL^]jk^!1[Pao;,fyR*(++)'RnSK88
     Sar2660 KC2023 01 24\YsIcW$Nl.OTiDIu!5NSsV8Y9@1bMlD`0=0NN4AwQOfPRaQBi^;yL51
     Sar2660 KC2023 01 24vN9p`Uw,y^pnDx\G?YxHy(!:YC)q8)HgvrMQpY*.OTVtR8uLLst%L51
     Sar2660 KC2023 01 24VO@irIa1,cxredacted;\[%3+8q9A%ooXbj^hXmNb3=Z7XEwAwZ#L51
     Sar2660 KC2023 01 24.93671 07 07 53.24 +48 11 58.5    ~1ONM 18.9 GXNEOCPC95
     Sar2660 KC2023 01 24.94370 07 07 57.30 +48 11 27.8    ~1ONM 19.3 GXNEOCPC95
     Sar2660 KC2023 01 24.95030 07 08 01.09 +48 10 58.3    ~1ONM 19.1 GXNEOCPC95
     Sar2660 KC2023 01 24VG.n?jDq9VY^:!VMo*5\GIMoK!l+$IRgqKi;J:UZNmuOIxSk5T:b958
     Sar2660 KC2023 01 24.95573 07 08 04.26 +48 10 34.7    ~1PBM 19.0 GXNEOCPC95
     Sar2660 KC2023 01 244c360n3K[^P$s/[G0P%fO2WfK!inkyf_27AJhyJBr3#sigJnSSdq958
     Sar2660 KC2023 01 24.95988 07 08 06.65 +48 10 16.6    ~1PBM 19.6 GXNEOCPC95
     Sar2660 KC2023 01 24G6QYEmX2RDIMnkMshy`ksP3wxf*Y+!uR\TxO2d'0gUXY\+G5llbB958
     Sar2660  C2023 01 25Y_tCS+D3QIZ)xFmZVZihmKtn:f;#bt\t`jY^W_5'?r%e?9uT(GS8654
     Sar2660  C2023 01 25pn$1K@_g4MFm2$S!_Ltl9Xgm`+onwebUPguiTx#\xKnVXI;*CZv7654
     Sar2660  C2023 01 258*R#SFUrb0HO,l*^I@\t49R]T7[hgrZ_V3=dYr\B(click_K4Q/r654
     Sar2660 hC2023 01 25O/O=H[!Vr6E:b%yl(L4?Hq$M+U]X/2g^Pi@+ElAD`]$`!pV^vE#xL01
     Sar2660 hC2023 01 25[LG6/YEu^%iX0iJ+31hkKDb'\897BtcDdL#/!XG'G%kj*wXo?It=L01
     Sar2660 hC2023 01 251UyJ\l;$fXHP^:_^;@_A2PKc.t(1nFCIyG+l0Xt2c2lWq*rlD9$NL01
     Sar2660 KC2023 01 25g\8IG`ID0Ik;;a%M5ljG^G?Cteggi;,0Qx3x_]CI`h!PD(ejs3NtL01
     Sar2660 KC2023 01 25,qnq8\:SB$*@7)YN\4n!5DErd5EQ=?]ih.'J5l?f=F(\ZQ7JO\B9L01
     Sar2660 KC2023 01 26KgjC`'2Nimxk(DqeiX?5;Uolm?A);5hereU(YRCadq*1JvnHGp3j858
     Sar2660 KC2023 01 26N,YCbO5UH1for8Fm%yC@c;KOe!C3Hm!9u-r?I!TX$eqvevE@e[5j858
     Sar2660 KC2023 01 260Tk-A:v-v^Y;-5I@mikiT/?y'9?=N/'\!5$o5TVe8explanation858

Station data:
(654) Table Mountain Observatory, Wrightwood-PHMC  (N34.381820 W117.681590)
   US/California.  Observers P. Choi, N. Saini, C. Zhai, R. Trahan, M. Shao.
(858) Tebbutt Observatory, Edgewood  (N35.093869 W106.220000)  US/New Mexico.
    Observer F. B. Zoltowski. 0.16-m refractor + CCD0.51-m Schmidt-Cassegrain
   + CCD.
(958) Observatoire de Dax  (N43.693324 W1.030390)  France.  Observer P.
   Dupouy. 0.32-m Schmidt-Cassegrain.
(C95) SATINO Remote Observatory, Haute Provence  (N43.932040 E5.712390)
   France.  Observer J. Jahn. 0.60-m f/3.2 Newtonian reflector + CCD.
(I93) St Pardon de Conques  (N44.558708 W0.203000)  France.  Observers F.
   Losse, W. D'Anna. Measurer F. Losse. 0.40-m f/3.7 reflector + CCD.
(J95) Great Shefford  (N51.474969 W1.447003)  UK/England.  Observer P.
   Birtwhistle. 0.41-m f/6.3 Schmidt-Cassegrain + CCD.
(K88) GINOP-KHK, Piszkéstető  (N47.917619 E19.893600)  Hungary.  Observer K.
   Sárneczky. 0.60-m Schmidt + CCD.
(L01) Višnjan Observatory, Tičan  (N45.290897 E13.749300)  Croatia.
   Observers K. Korlević, D. Pujagic, V. Dobos. Measurers D. Pujagic, K.
   Korlević. 1.0-m f/2.9 reflector + CCD.
(L51) MARGO, Nauchnij  (N44.729397 E34.016400)  Ukraine.  Observer G. Borisov.
    0.4-m f/2.3 astrograph + CCD.

Orbital elements:  Sar2660
   Perihelion 2022 Dec 20.17650 +/- 0.0601 TT =  4:14:09 (JD 2459933.67650)
Epoch 2023 Jan 26.0 TT = JDT 2459970.5   Earth MOID: 0.0407   Ma: 0.0209
M  13.47319191 +/- 0.09             (J2000 ecliptic)             AutoNEOCP
n   0.36588572 +/- 0.00227          Peri.   70.44535 +/- 0.29
a   1.93600172 +/- 0.00801          Node    10.68760 +/- 0.22
e   0.4890266 +/- 0.00205           Incl.    2.67445 +/- 0.011
P   2.69/983.90d           H 23.31  G  0.15   U  8.7
q 0.98924528 +/- 0.000338    Q 2.88275816 +/- 0.0159
From 37 observations 2023 Jan. 24-26 (34.1 hr); mean residual 0".35
Residuals in arcseconds: 
230124 K88  .23+  .80+    230124 K88  .03-  .17+    230125 654  .09+  .03+    
230124 K88  .16+  .64+    230124 K88  .21+  .48+    230125 654  .04+  .07+    
230124 K88  .33-  .36+    230124 L51  .49+  .18-    230125 654  .01-  .02-    
230124 K88  .09-  .23+    230124 L51  .30+  .41-    230125 L01  .27-  .52+    
230124 K88  .26-  .57+    230124 L51  .31+  .63-    230125 L01  .20+  .02+    
230124 I93  .32+  .32-    230124 C95  .43+  .63-    230125 L01  .30+  .03-    
230124 J95  .38+  .17-    230124 C95  .38+  .30-    230125 L01  .41+  .01-    
230124 I93  .41-  .09+    230124 C95  .08-  .43-    230125 L01  .14-  .02+    
230124 J95  .11-  .14-    230124 958  .40-  .73+    230126 858  .49-  .33-    
230124 J95  .07-  .29-    230124 C95  .08+  .19+    230126 858  .20+  .10+    
230124 I93  .26+  .05-    230124 958  .46-  .21+    230126 858  .01+  .08-    
230124 J95  .31-  .16+    230124 C95  .12-  .63+    
230124 K88  .19-  .68+    230124 958  .40-  .90+    

Ephemerides (geocentric):
Date (UTC) HH   RA             Dec           delta  r     elong  mag " sig PA
---- --------  ------------   ------------  ------ ------ -----  --- --------
2023 01 26 06  07 20 30.627   +46 35 34.11  .11355 1.0831 148.6 20.1 .119  86
2023 01 26 07  07 20 52.972   +46 32 32.64  .11371 1.0833 148.6 20.1 .125  87
2023 01 26 08  07 21 15.219   +46 29 31.31  .11388 1.0835 148.7 20.1 .131  88
2023 01 26 09  07 21 37.369   +46 26 30.13  .11404 1.0837 148.7 20.1 .137  90
2023 01 26 10  07 21 59.421   +46 23 29.09  .11420 1.0839 148.8 20.1 .144  91
2023 01 26 11  07 22 21.378   +46 20 28.20  .11437 1.0841 148.8 20.1 .151  92
2023 01 26 12  07 22 43.239   +46 17 27.47  .11453 1.0843 148.9 20.1 .159  94
2023 01 26 13  07 23 05.004   +46 14 26.88  .11469 1.0845 148.9 20.1 .166  95
2023 01 26 14  07 23 26.675   +46 11 26.46  .11486 1.0847 149.0 20.1 .174  96
2023 01 26 15  07 23 48.251   +46 08 26.19  .11502 1.0849 149.0 20.1 .183  97
2023 01 26 16  07 24 09.734   +46 05 26.08  .11519 1.0851 149.1 20.1 .191  98
2023 01 26 17  07 24 31.123   +46 02 26.14  .11535 1.0853 149.1 20.1 .200  99
2023 01 26 18  07 24 52.420   +45 59 26.36  .11552 1.0855 149.2 20.1 .210 100
2023 01 26 19  07 25 13.624   +45 56 26.74  .11568 1.0857 149.2 20.1 .219 101
2023 01 26 20  07 25 34.737   +45 53 27.30  .11585 1.0859 149.3 20.1 .229 102
2023 01 26 21  07 25 55.758   +45 50 28.02  .11602 1.0860 149.3 20.1 .239 102
2023 01 26 22  07 26 16.689   +45 47 28.91  .11618 1.0862 149.4 20.1 .249 103
2023 01 26 23  07 26 37.529   +45 44 29.98  .11635 1.0864 149.4 20.1 .260 104
2023 01 27 00  07 26 58.279   +45 41 31.22  .11652 1.0866 149.5 20.1 .271 105
2023 01 27 01  07 27 18.940   +45 38 32.64  .11669 1.0868 149.5 20.1 .282 105
2023 01 27 02  07 27 39.513   +45 35 34.24  .11685 1.0870 149.6 20.1 .294 106
2023 01 27 03  07 27 59.996   +45 32 36.02  .11702 1.0872 149.6 20.1 .305 107
2023 01 27 04  07 28 20.392   +45 29 37.98  .11719 1.0874 149.7 20.1 .317 107
2023 01 27 05  07 28 40.700   +45 26 40.12  .11736 1.0876 149.7 20.1 .330 108
2023 01 27 06  07 29 00.922   +45 23 42.45  .11753 1.0878 149.8 20.1 .342 108
2023 01 27 07  07 29 21.056   +45 20 44.97  .11770 1.0880 149.8 20.1 .355 109
2023 01 27 08  07 29 41.105   +45 17 47.68  .11787 1.0882 149.9 20.1 .368 109
2023 01 27 09  07 30 01.068   +45 14 50.57  .11804 1.0884 149.9 20.1 .381 110
2023 01 27 10  07 30 20.946   +45 11 53.66  .11821 1.0886 150.0 20.1 .395 110
2023 01 27 11  07 30 40.739   +45 08 56.94  .11838 1.0888 150.0 20.1 .409 111
2023 01 27 12  07 31 00.448   +45 06 00.41  .11855 1.0890 150.1 20.1 .423 111
2023 01 27 13  07 31 20.073   +45 03 04.08  .11872 1.0892 150.1 20.1 .437 112
2023 01 27 14  07 31 39.615   +45 00 07.95  .11889 1.0894 150.1 20.1 .451 112
2023 01 27 15  07 31 59.074   +44 57 12.02  .11906 1.0896 150.2 20.1 .466 112
2023 01 27 16  07 32 18.450   +44 54 16.29  .11923 1.0898 150.2 20.1 .481 113
2023 01 27 17  07 32 37.744   +44 51 20.76  .11940 1.0900 150.3 20.1 .496 113
2023 01 27 18  07 32 56.957   +44 48 25.43  .11958 1.0902 150.3 20.1 .511 113
2023 01 27 19  07 33 16.089   +44 45 30.30  .11975 1.0904 150.4 20.1 .527 114
2023 01 27 20  07 33 35.140   +44 42 35.39  .11992 1.0906 150.4 20.1 .543 114
2023 01 27 21  07 33 54.110   +44 39 40.67  .12010 1.0908 150.5 20.1 .559 114
2023 01 27 22  07 34 13.001   +44 36 46.17  .12027 1.0910 150.5 20.1 .575 115
2023 01 27 23  07 34 31.812   +44 33 51.88  .12044 1.0912 150.6 20.1 .591 115
2023 01 28 00  07 34 50.545   +44 30 57.79  .12062 1.0914 150.6 20.2 .608 115
2023 01 28 01  07 35 09.198   +44 28 03.92  .12079 1.0916 150.6 20.2 .625 116
2023 01 28 02  07 35 27.774   +44 25 10.26  .12097 1.0919 150.7 20.2 .642 116
2023 01 28 03  07 35 46.272   +44 22 16.82  .12114 1.0921 150.7 20.2 .659 116
2023 01 28 04  07 36 04.692   +44 19 23.59  .12132 1.0923 150.8 20.2 .677 116
2023 01 28 05  07 36 23.036   +44 16 30.58  .12149 1.0925 150.8 20.2 .694 117